Tracking 23758 objects as of 27-Oct-2021
HD Live streaming from Space Station
objects crossing your sky now

IRIDIUM 33 DEB

Track IRIDIUM 33 DEB now!
10-day predictions


NORAD ID: 35616
Int'l Code: 1997-051QN
Perigee: 716.7 km
Apogee: 741.3 km
Inclination: 86.4 °
Period: 99.2 minutes
Semi major axis: 7100 km
RCS: 0.0074 m2 (small)
Launch date: September 14, 1997
Source: United States (US)
Launch site: TYURATAM MISSILE AND SPACE COMPLEX (TTMTR)

Note: This is SATELLITE DEBRIS
aabbcc
Your satellite tracking list
Your tracking list is empty




NASA's NSSDC Master Catalog

Two Line Element Set (TLE):
1 35616U 97051QN  21299.71391045  .00001223  00000-0  30259-3 0  9996
2 35616  86.3613 290.6652 0017307 289.1532  70.7800 14.51155789657701
Source of the keplerian elements: AFSPC